Date,TemperatureHighF,TemperatureAvgF,TemperatureLowF,DewpointHighF,DewpointAvgF,DewpointLowF,HumidityHigh,HumidityAvg,HumidityLow,PressureMaxIn,PressureMinIn,WindSpeedMaxMPH,WindSpeedAvgMPH,GustSpeedMaxMPH,PrecipitationSumIn
2013-4-1,84.2,69.2,53.7,24.5,18.4,11.2,18,15,11,27.82,27.64,8,1,12,0.00
2013-4-2,77.0,64.4,49.8,22.3,15.5,5.4,17,15,13,27.77,27.64,11,2,18,0.00
2013-4-3,82.9,67.0,49.8,23.9,16.5,5.4,18,14,11,27.83,27.70,11,2,15,0.00
2013-4-4,89.4,71.5,53.4,26.6,19.0,7.0,18,14,10,27.87,27.69,8,1,11,0.00
2013-4-5,87.9,73.8,57.5,26.4,20.4,13.0,17,14,10,27.79,27.63,9,1,15,0.00
2013-4-6,86.5,72.4,56.6,25.5,19.8,12.3,17,14,11,27.79,27.60,8,1,12,0.00
2013-4-7,86.9,72.3,56.8,26.0,19.8,12.5,17,14,11,27.70,27.53,8,1,13,0.00
2013-4-8,80.9,69.3,46.5,37.2,19.6,13.0,68,16,12,27.57,27.22,17,7,28,0.04
2013-4-9,65.1,58.8,46.4,40.9,18.3,10.4,79,24,15,27.68,27.44,12,3,20,0.08
2013-4-10,68.3,57.4,43.8,21.8,16.6,10.8,39,21,15,27.79,27.67,10,2,15,0.00
2013-4-11,78.0,62.9,44.7,23.9,18.6,11.8,36,19,13,27.80,27.55,8,1,14,0.00
2013-4-12,81.3,66.3,52.8,23.8,17.2,10.5,18,15,12,27.63,27.52,8,0,11,0.00
2013-4-13,85.6,70.9,51.0,25.0,19.0,9.6,19,14,11,27.68,27.51,8,1,15,0.00
2013-4-14,83.8,71.5,57.2,24.5,19.5,12.7,17,14,11,27.64,27.45,11,3,17,0.00
2013-4-15,85.4,73.6,60.9,24.9,20.3,14.4,16,13,11,27.62,27.48,15,4,21,0.00
2013-4-16,83.4,71.5,58.2,24.5,19.5,13.6,17,14,11,27.64,27.48,14,4,26,0.00
2013-4-17,67.2,61.3,56.4,24.4,16.9,12.2,27,18,15,27.79,27.60,12,3,20,0.00
2013-4-18,70.7,58.6,42.6,19.9,12.3,2.1,18,16,14,27.92,27.77,11,2,15,0.00
2013-4-19,81.1,63.2,43.5,23.7,14.3,2.5,18,15,12,27.93,27.70,8,1,12,0.00
2013-4-20,84.7,67.1,46.7,24.5,16.2,4.1,17,14,11,27.78,27.66,11,1,13,0.00
2013-4-21,89.0,71.6,51.9,26.6,18.6,7.0,17,14,10,27.85,27.69,9,1,14,0.00
2013-4-22,92.6,75.8,57.9,27.0,20.9,13.3,17,13,9,27.79,27.56,9,1,12,0.00
2013-4-23,88.3,75.2,59.1,26.6,21.0,14.4,17,13,10,27.69,27.57,10,1,15,0.00
2013-4-24,90.6,76.4,59.5,26.6,21.2,14.4,17,13,10,27.73,27.60,8,2,12,0.00
2013-4-25,82.2,73.5,60.9,24.5,20.6,14.4,16,14,12,27.82,27.67,13,3,22,0.00
2013-4-26,87.9,70.0,50.3,26.6,18.1,5.8,19,14,10,27.91,27.75,10,1,15,0.00
2013-4-27,90.6,74.9,55.7,26.6,20.6,11.6,17,13,10,27.88,27.66,10,1,16,0.00
2013-4-28,95.5,77.8,57.7,32.6,21.6,13.2,17,13,9,27.73,27.53,9,1,12,0.00
2013-4-29,96.4,79.9,59.7,33.3,23.2,14.3,17,13,9,27.67,27.47,9,1,14,0.00
2013-4-30,96.9,80.9,62.6,33.7,23.4,15.7,16,12,9,27.63,27.47,12,2,15,0.00